^^
Daily Summary for April 26, 2021 Units:  Metric    English   Both
Daily Weekly Monthly Yearly Custom
  High: Low: Average:
Temperature: 17.8 °C 2.2 °C 8.7 °C
Dew Point: 6.1 °C 0.6 °C 2.8 °C
Humidity: 93% 33% 72%
Wind Speed: 27.4km/h 0km/h 5.5km/h
Wind Gust: 27.4km/h - -
Wind- - ESE
Pressure: 1015.8 hPa 1015.8 hPa -
Precipitation: 0 mm    
Historical Graphs
 
 
Tabular Data for April 26, 2021
Time Temperature Dew Point Pressure Wind Wind Speed Wind Gust Humidity Rainfall Rate (Hourly) solar
00:04 5.6 °C 3.9 °C 1015.8 hPa ENE 3.2 km/h 3.2 km/h 88% 0 mm 0.00 W/m2
00:09 5.6 °C 3.9 °C 1015.8 hPa ENE 6.4 km/h 3.2 km/h 88% 0 mm 0.00 W/m2
00:14 5.6 °C 3.3 °C 1015.8 hPa ENE 6.4 km/h 4.8 km/h 88% 0 mm 0.00 W/m2
00:19 5.6 °C 3.3 °C 1015.8 hPa Calm     87% 0 mm 0.00 W/m2
00:24 5 °C 3.3 °C 1015.8 hPa Calm     87% 0 mm 0.00 W/m2
00:29 5 °C 3.3 °C 1015.8 hPa Calm     87% 0 mm 0.00 W/m2
00:34 5 °C 2.8 °C 1015.8 hPa Calm     87% 0 mm 0.00 W/m2
00:39 5 °C 2.8 °C 1015.8 hPa Calm     87% 0 mm 0.00 W/m2
00:44 5 °C 2.8 °C 1015.8 hPa Calm     87% 0 mm 0.00 W/m2
00:49 4.4 °C 2.8 °C 1015.8 hPa Calm     87% 0 mm 0.00 W/m2
00:54 4.4 °C 2.8 °C 1015.8 hPa Calm     87% 0 mm 0.00 W/m2
00:59 4.4 °C 2.2 °C 1015.8 hPa Calm     87% 0 mm 0.00 W/m2
01:04 4.4 °C 2.2 °C 1015.8 hPa Calm     87% 0 mm 0.00 W/m2
01:09 3.9 °C 2.2 °C 1015.8 hPa Calm     87% 0 mm 0.00 W/m2
01:14 3.9 °C 2.2 °C 1015.8 hPa Calm     87% 0 mm 0.00 W/m2
01:19 3.9 °C 2.2 °C 1015.8 hPa Calm     87% 0 mm 0.00 W/m2
01:24 3.9 °C 2.2 °C 1015.8 hPa Calm     88% 0 mm 0.00 W/m2
01:29 3.9 °C 2.2 °C 1015.8 hPa Calm     88% 0 mm 0.00 W/m2
01:34 3.9 °C 2.2 °C 1015.8 hPa Calm     88% 0 mm 0.00 W/m2
01:39 3.9 °C 2.2 °C 1015.8 hPa Calm     88% 0 mm 0.00 W/m2
01:44 3.9 °C 2.2 °C 1015.8 hPa Calm     89% 0 mm 0.00 W/m2
01:49 3.9 °C 2.2 °C 1015.8 hPa Calm     89% 0 mm 0.00 W/m2
01:54 3.9 °C 2.2 °C 1015.8 hPa Calm     89% 0 mm 0.00 W/m2
01:59 3.9 °C 2.2 °C 1015.8 hPa Calm     89% 0 mm 0.00 W/m2
02:04 3.9 °C 2.2 °C 1015.8 hPa Calm     89% 0 mm 0.00 W/m2
02:09 3.9 °C 2.2 °C 1015.8 hPa Calm     89% 0 mm 0.00 W/m2
02:14 3.9 °C 2.2 °C 1015.8 hPa Calm     89% 0 mm 0.00 W/m2
02:19 3.9 °C 2.2 °C 1015.8 hPa Calm     89% 0 mm 0.00 W/m2
02:24 3.9 °C 2.2 °C 1015.8 hPa Calm     89% 0 mm 0.00 W/m2
02:29 3.3 °C 1.7 °C 1015.8 hPa Calm     89% 0 mm 0.00 W/m2
02:34 3.3 °C 1.7 °C 1015.8 hPa Calm     89% 0 mm 0.00 W/m2
02:39 3.3 °C 1.7 °C 1015.8 hPa Calm     89% 0 mm 0.00 W/m2
02:44 3.3 °C 1.7 °C 1015.8 hPa Calm     89% 0 mm 0.00 W/m2
02:49 3.3 °C 1.7 °C 1015.8 hPa Calm     89% 0 mm 0.00 W/m2
02:54 3.3 °C 1.7 °C 1015.8 hPa Calm     89% 0 mm 0.00 W/m2
02:59 3.3 °C 1.7 °C 1015.8 hPa Calm     89% 0 mm 0.00 W/m2
03:04 3.3 °C 1.7 °C 1015.8 hPa Calm     89% 0 mm 0.00 W/m2
03:09 3.3 °C 1.7 °C 1015.8 hPa Calm     89% 0 mm 0.00 W/m2
03:14 3.3 °C 1.7 °C 1015.8 hPa Calm     89% 0 mm 0.00 W/m2
03:19 3.3 °C 1.7 °C 1015.8 hPa Calm     89% 0 mm 0.00 W/m2
03:24 3.3 °C 1.7 °C 1015.8 hPa Calm     89% 0 mm 0.00 W/m2
03:29 3.3 °C 1.7 °C 1015.8 hPa Calm     89% 0 mm 0.00 W/m2
03:34 2.8 °C 1.7 °C 1015.8 hPa Calm     89% 0 mm 0.00 W/m2
03:39 2.8 °C 1.1 °C 1015.8 hPa Calm     89% 0 mm 0.00 W/m2
03:44 2.8 °C 1.7 °C 1015.8 hPa Calm     90% 0 mm 0.00 W/m2
03:49 2.8 °C 1.7 °C 1015.8 hPa Calm     90% 0 mm 0.00 W/m2
03:54 2.8 °C 1.7 °C 1015.8 hPa Calm     90% 0 mm 0.00 W/m2
03:59 2.8 °C 1.7 °C 1015.8 hPa Calm     90% 0 mm 0.00 W/m2
04:04 2.8 °C 1.1 °C 1015.8 hPa Calm     90% 0 mm 0.00 W/m2
04:09 2.8 °C 1.1 °C 1015.8 hPa Calm     90% 0 mm 0.00 W/m2
04:14 2.8 °C 1.1 °C 1015.8 hPa Calm     89% 0 mm 0.00 W/m2
04:19 2.8 °C 1.1 °C 1015.8 hPa Calm     89% 0 mm 0.00 W/m2
04:24 2.8 °C 1.1 °C 1015.8 hPa Calm     89% 0 mm 0.00 W/m2
04:29 2.8 °C 1.1 °C 1015.8 hPa Calm     89% 0 mm 0.00 W/m2
04:34 2.8 °C 1.1 °C 1015.8 hPa Calm     89% 0 mm 0.00 W/m2
04:39 2.8 °C 1.1 °C 1015.8 hPa Calm     89% 0 mm 0.00 W/m2
04:44 2.2 °C 1.1 °C 1015.8 hPa Calm     90% 0 mm 0.00 W/m2
04:49 2.2 °C 0.6 °C 1015.8 hPa Calm     89% 0 mm 0.00 W/m2
04:54 2.2 °C 0.6 °C 1015.8 hPa Calm     89% 0 mm 0.00 W/m2
04:59 2.2 °C 0.6 °C 1015.8 hPa Calm     89% 0 mm 0.00 W/m2
05:04 2.2 °C 1.1 °C 1015.8 hPa Calm     90% 0 mm 0.00 W/m2
05:09 2.2 °C 0.6 °C 1015.8 hPa Calm     90% 0 mm 0.00 W/m2
05:14 2.2 °C 1.1 °C 1015.8 hPa Calm     90% 0 mm 0.00 W/m2
05:19 2.2 °C 1.1 °C 1015.8 hPa Calm     90% 0 mm 0.00 W/m2
05:23 2.2 °C 1.1 °C 1015.8 hPa Calm     90% 0 mm 0.00 W/m2
05:29 2.2 °C 1.1 °C 1015.8 hPa Calm     91% 0 mm 0.00 W/m2
05:34 2.8 °C 1.1 °C 1015.8 hPa Calm     91% 0 mm 0.00 W/m2
05:39 2.8 °C 1.1 °C 1015.8 hPa Calm     91% 0 mm 0.00 W/m2
05:44 2.8 °C 1.7 °C 1015.8 hPa Calm     91% 0 mm 0.00 W/m2
05:49 2.8 °C 1.7 °C 1015.8 hPa Calm     91% 0 mm 0.00 W/m2
05:54 2.8 °C 1.7 °C 1015.8 hPa ENE 6.4 km/h 1.6 km/h 91% 0 mm 0.00 W/m2
05:59 3.3 °C 1.7 °C 1015.8 hPa Calm   4.8 km/h 92% 0 mm 0.00 W/m2
06:04 3.3 °C 2.2 °C 1015.8 hPa ENE 6.4 km/h 1.6 km/h 92% 0 mm 0.00 W/m2
06:09 3.3 °C 2.2 °C 1015.8 hPa Calm   4.8 km/h 92% 0 mm 0.00 W/m2
06:14 3.3 °C 2.2 °C 1015.8 hPa Calm     92% 0 mm 0.00 W/m2
06:19 3.3 °C 2.2 °C 1015.8 hPa Calm     92% 0 mm 0.00 W/m2
06:24 3.9 °C 2.8 °C 1015.8 hPa Calm     92% 0 mm 0.00 W/m2
06:29 3.9 °C 2.8 °C 1015.8 hPa Calm     92% 0 mm 5.00 W/m2
06:34 3.9 °C 2.8 °C 1015.8 hPa Calm     92% 0 mm 7.00 W/m2
06:39 3.9 °C 2.8 °C 1015.8 hPa Calm     92% 0 mm 11.00 W/m2
06:44 3.9 °C 2.8 °C 1015.8 hPa Calm     92% 0 mm 12.00 W/m2
06:49 4.4 °C 2.8 °C 1015.8 hPa ENE 6.4 km/h 1.6 km/h 92% 0 mm 14.00 W/m2
06:54 4.4 °C 2.8 °C 1015.8 hPa ENE 3.2 km/h 4.8 km/h 92% 0 mm 19.00 W/m2
06:59 4.4 °C 3.3 °C 1015.8 hPa Calm   3.2 km/h 92% 0 mm 23.00 W/m2
07:04 4.4 °C 3.3 °C 1015.8 hPa Calm     92% 0 mm 23.00 W/m2
07:09 4.4 °C 3.3 °C 1015.8 hPa ENE 3.2 km/h   92% 0 mm 28.00 W/m2
07:14 4.4 °C 3.3 °C 1015.8 hPa NNW 11.3 km/h 9.7 km/h 92% 0 mm 33.00 W/m2
07:19 4.4 °C 3.3 °C 1015.8 hPa North 11.3 km/h 11.3 km/h 92% 0 mm 40.00 W/m2
07:24 4.4 °C 3.3 °C 1015.8 hPa NNW 3.2 km/h 11.3 km/h 92% 0 mm 72.00 W/m2
07:29 4.4 °C 3.3 °C 1015.8 hPa NNW 6.4 km/h 3.2 km/h 92% 0 mm 97.00 W/m2
07:34 4.4 °C 3.3 °C 1015.8 hPa Calm   4.8 km/h 92% 0 mm 97.00 W/m2
07:39 4.4 °C 3.3 °C 1015.8 hPa Calm     92% 0 mm 69.00 W/m2
07:44 4.4 °C 3.3 °C 1015.8 hPa Calm     92% 0 mm 86.00 W/m2
07:49 4.4 °C 3.3 °C 1015.8 hPa Calm     92% 0 mm 102.00 W/m2
07:54 5 °C 3.3 °C 1015.8 hPa Calm     92% 0 mm 97.00 W/m2
07:59 5 °C 3.3 °C 1015.8 hPa Calm     92% 0 mm 120.00 W/m2
08:04 5 °C 3.9 °C 1015.8 hPa Calm     92% 0 mm 139.00 W/m2
08:09 5 °C 3.9 °C 1015.8 hPa NE 3.2 km/h   92% 0 mm 283.00 W/m2
08:14 5 °C 3.9 °C 1015.8 hPa Calm   3.2 km/h 92% 0 mm 378.00 W/m2
08:19 5 °C 3.9 °C 1015.8 hPa Calm     93% 0 mm 399.00 W/m2
08:24 5 °C 3.9 °C 1015.8 hPa Calm     93% 0 mm 410.00 W/m2
08:29 5 °C 3.9 °C 1015.8 hPa Calm     93% 0 mm 429.00 W/m2
08:34 5.6 °C 4.4 °C 1015.8 hPa Calm     93% 0 mm 455.00 W/m2
08:39 6.1 °C 5 °C 1015.8 hPa Calm     93% 0 mm 466.00 W/m2
08:44 6.1 °C 5 °C 1015.8 hPa Calm     93% 0 mm 494.00 W/m2
08:49 6.1 °C 5.6 °C 1015.8 hPa Calm     93% 0 mm 512.00 W/m2
08:54 6.7 °C 5.6 °C 1015.8 hPa Calm     93% 0 mm 536.00 W/m2
08:59 6.7 °C 5.6 °C 1015.8 hPa Calm     93% 0 mm 566.00 W/m2
09:04 6.7 °C 5.6 °C 1015.8 hPa East 3.2 km/h   93% 0 mm 589.00 W/m2
09:09 7.2 °C 6.1 °C 1015.8 hPa Calm   3.2 km/h 93% 0 mm 605.00 W/m2
09:14 7.2 °C 6.1 °C 1015.8 hPa Calm     93% 0 mm 624.00 W/m2
09:19 7.2 °C 6.1 °C 1015.8 hPa Calm     93% 0 mm 622.00 W/m2
09:24 7.2 °C 6.1 °C 1015.8 hPa East 3.2 km/h   92% 0 mm 636.00 W/m2
09:29 7.2 °C 6.1 °C 1015.8 hPa ESE 3.2 km/h 3.2 km/h 92% 0 mm 656.00 W/m2
09:34 7.8 °C 6.1 °C 1015.8 hPa Calm   3.2 km/h 91% 0 mm 670.00 W/m2
09:39 8.3 °C 6.1 °C 1015.8 hPa East 3.2 km/h   90% 0 mm 686.00 W/m2
09:44 8.3 °C 6.1 °C 1015.8 hPa Calm   3.2 km/h 88% 0 mm 701.00 W/m2
09:49 8.9 °C 6.1 °C 1015.8 hPa East 6.4 km/h 1.6 km/h 86% 0 mm 717.00 W/m2
09:54 8.9 °C 6.1 °C 1015.8 hPa ESE 6.4 km/h 4.8 km/h 84% 0 mm 729.00 W/m2
09:59 9.4 °C 6.1 °C 1015.8 hPa SE 6.4 km/h 3.2 km/h 81% 0 mm 728.00 W/m2
10:04 9.4 °C 5.6 °C 1015.8 hPa SE 3.2 km/h 4.8 km/h 78% 0 mm 773.00 W/m2
10:09 9.4 °C 5 °C 1015.8 hPa North 3.2 km/h 3.2 km/h 74% 0 mm 856.00 W/m2
10:14 10 °C 5.6 °C 1015.8 hPa North 6.4 km/h 3.2 km/h 74% 0 mm 904.00 W/m2
10:19 10 °C 5.6 °C 1015.8 hPa North 3.2 km/h 4.8 km/h 73% 0 mm 946.00 W/m2
10:24 10.6 °C 6.1 °C 1015.8 hPa NE 3.2 km/h 3.2 km/h 74% 0 mm 960.00 W/m2
10:29 10.6 °C 6.1 °C 1015.8 hPa East 8 km/h 3.2 km/h 73% 0 mm 970.00 W/m2
10:34 11.1 °C 5.6 °C 1015.8 hPa East 9.7 km/h 9.7 km/h 69% 0 mm 1005.00 W/m2
10:39 11.1 °C 5.6 °C 1015.8 hPa ESE 6.4 km/h 3.2 km/h 68% 0 mm 1005.00 W/m2
10:44 11.1 °C 4.4 °C 1015.8 hPa SE 3.2 km/h 4.8 km/h 64% 0 mm 1013.00 W/m2
10:49 11.1 °C 4.4 °C 1015.8 hPa ENE 6.4 km/h 4.8 km/h 64% 0 mm 997.00 W/m2
10:54 11.1 °C 3.3 °C 1015.8 hPa SSE 3.2 km/h 1.6 km/h 58% 0 mm 974.00 W/m2
10:59 11.7 °C 3.9 °C 1015.8 hPa ENE 3.2 km/h 3.2 km/h 61% 0 mm 974.00 W/m2
11:04 11.7 °C 4.4 °C 1015.8 hPa ENE 3.2 km/h 3.2 km/h 61% 0 mm 970.00 W/m2
11:09 11.7 °C 3.9 °C 1015.8 hPa ENE 6.4 km/h 3.2 km/h 58% 0 mm 954.00 W/m2
11:14 12.2 °C 4.4 °C 1015.8 hPa ENE 3.2 km/h 4.8 km/h 60% 0 mm 937.00 W/m2
11:19 12.2 °C 3.9 °C 1015.8 hPa ESE 11.3 km/h 11.3 km/h 58% 0 mm 988.00 W/m2
11:24 12.2 °C 3.9 °C 1015.8 hPa SE 6.4 km/h 4.8 km/h 56% 0 mm 1027.00 W/m2
11:29 12.2 °C 3.9 °C 1015.8 hPa Calm   3.2 km/h 55% 0 mm 1104.00 W/m2
11:34 12.8 °C 4.4 °C 1015.8 hPa SW 3.2 km/h   57% 0 mm 956.00 W/m2
11:39 12.8 °C 4.4 °C 1015.8 hPa East 9.7 km/h 4.8 km/h 57% 0 mm 984.00 W/m2
11:44 12.8 °C 4.4 °C 1015.8 hPa ESE 9.7 km/h 9.7 km/h 57% 0 mm 984.00 W/m2
11:49 12.8 °C 4.4 °C 1015.8 hPa East 11.3 km/h 9.7 km/h 57% 0 mm 1032.00 W/m2
11:54 12.8 °C 3.3 °C 1015.8 hPa East 14.5 km/h 11.3 km/h 52% 0 mm 1035.00 W/m2
11:59 13.3 °C 3.3 °C 1015.8 hPa SE 9.7 km/h 14.5 km/h 52% 0 mm 998.00 W/m2
12:04 13.3 °C 3.9 °C 1015.8 hPa East 14.5 km/h 6.4 km/h 54% 0 mm 1016.00 W/m2
12:09 13.3 °C 4.4 °C 1015.8 hPa East 9.7 km/h 14.5 km/h 56% 0 mm 1032.00 W/m2
12:14 13.3 °C 4.4 °C 1015.8 hPa SE 9.7 km/h 4.8 km/h 54% 0 mm 1002.00 W/m2
12:19 13.3 °C 3.3 °C 1015.8 hPa SE 6.4 km/h 9.7 km/h 50% 0 mm 981.00 W/m2
12:24 13.3 °C 2.8 °C 1015.8 hPa ESE 9.7 km/h 4.8 km/h 48% 0 mm 990.00 W/m2
12:29 13.9 °C 2.2 °C 1015.8 hPa ESE 17.7 km/h 11.3 km/h 46% 0 mm 1025.00 W/m2
12:34 13.9 °C 2.8 °C 1015.8 hPa NE 14.5 km/h 16.1 km/h 47% 0 mm 1041.00 W/m2
12:39 13.9 °C 2.8 °C 1015.8 hPa ESE 17.7 km/h 9.7 km/h 47% 0 mm 1018.00 W/m2
12:44 14.4 °C 3.3 °C 1015.8 hPa SE 9.7 km/h 16.1 km/h 48% 0 mm 1011.00 W/m2
12:49 14.4 °C 3.3 °C 1015.8 hPa ESE 11.3 km/h 9.7 km/h 48% 0 mm 1011.00 W/m2
12:54 14.4 °C 2.2 °C 1015.8 hPa East 6.4 km/h 11.3 km/h 43% 0 mm 1023.00 W/m2
12:59 15 °C 2.2 °C 1015.8 hPa NNE 9.7 km/h 4.8 km/h 42% 0 mm 1049.00 W/m2
13:04 15 °C 2.2 °C 1015.8 hPa East 11.3 km/h 11.3 km/h 42% 0 mm 1046.00 W/m2
13:09 15 °C 2.2 °C 1015.8 hPa NE 9.7 km/h 11.3 km/h 43% 0 mm 1016.00 W/m2
13:14 15 °C 2.8 °C 1015.8 hPa SE 17.7 km/h 9.7 km/h 44% 0 mm 1037.00 W/m2
13:19 15 °C 2.8 °C 1015.8 hPa East 11.3 km/h 16.1 km/h 44% 0 mm 1030.00 W/m2
13:24 15 °C 2.8 °C 1015.8 hPa ESE 9.7 km/h 11.3 km/h 44% 0 mm 1021.00 W/m2
13:29 15.6 °C 2.2 °C 1015.8 hPa East 14.5 km/h 9.7 km/h 42% 0 mm 1021.00 W/m2
13:34 15.6 °C 2.8 °C 1015.8 hPa ESE 11.3 km/h 14.5 km/h 42% 0 mm 1034.00 W/m2
13:39 15.6 °C 2.2 °C 1015.8 hPa North 11.3 km/h 11.3 km/h 41% 0 mm 1013.00 W/m2
13:44 15.6 °C 2.2 °C 1015.8 hPa WSW 11.3 km/h 11.3 km/h 41% 0 mm 976.00 W/m2
13:49 15.6 °C 2.2 °C 1015.8 hPa SE 6.4 km/h 9.7 km/h 40% 0 mm 974.00 W/m2
13:53 15.6 °C 2.2 °C 1015.8 hPa North 11.3 km/h 4.8 km/h 40% 0 mm 983.00 W/m2
13:59 16.1 °C 2.2 °C 1015.8 hPa ESE 17.7 km/h 12.9 km/h 39% 0 mm 991.00 W/m2
14:04 16.1 °C 2.2 °C 1015.8 hPa ESE 25.7 km/h 16.1 km/h 39% 0 mm 988.00 W/m2
14:09 16.1 °C 1.7 °C 1015.8 hPa ESE 11.3 km/h 25.7 km/h 38% 0 mm 956.00 W/m2
14:14 16.1 °C 2.8 °C 1015.8 hPa SSE 11.3 km/h 11.3 km/h 41% 0 mm 995.00 W/m2
14:19 16.1 °C 2.8 °C 1015.8 hPa ESE 11.3 km/h 4.8 km/h 41% 0 mm 976.00 W/m2
14:24 16.1 °C 2.2 °C 1015.8 hPa East 14.5 km/h 11.3 km/h 38% 0 mm 993.00 W/m2
14:29 16.1 °C 2.2 °C 1015.8 hPa East 11.3 km/h 14.5 km/h 39% 0 mm 993.00 W/m2
14:34 16.1 °C 1.7 °C 1015.8 hPa ESE 6.4 km/h 11.3 km/h 37% 0 mm 1048.00 W/m2
14:39 16.1 °C 2.2 °C 1015.8 hPa East 17.7 km/h 12.9 km/h 39% 0 mm 1030.00 W/m2
14:44 16.7 °C 2.8 °C 1015.8 hPa ESE 14.5 km/h 16.1 km/h 40% 0 mm 986.00 W/m2
14:49 16.7 °C 2.8 °C 1015.8 hPa SE 11.3 km/h 14.5 km/h 39% 0 mm 939.00 W/m2
14:54 17.2 °C 3.3 °C 1015.8 hPa East 3.2 km/h 3.2 km/h 41% 0 mm 898.00 W/m2
14:59 17.2 °C 2.8 °C 1015.8 hPa East 25.7 km/h 17.7 km/h 38% 0 mm 889.00 W/m2
15:04 17.2 °C 2.2 °C 1015.8 hPa East 25.7 km/h 25.7 km/h 36% 0 mm 879.00 W/m2
15:09 17.2 °C 2.2 °C 1015.8 hPa ESE 14.5 km/h 14.5 km/h 37% 0 mm 865.00 W/m2
15:14 17.2 °C 2.8 °C 1015.8 hPa ESE 25.7 km/h 19.3 km/h 38% 0 mm 846.00 W/m2
15:19 17.2 °C 1.7 °C 1015.8 hPa East 22.5 km/h 25.7 km/h 35% 0 mm 833.00 W/m2
15:24 17.2 °C 1.7 °C 1015.8 hPa ENE 11.3 km/h 22.5 km/h 35% 0 mm 823.00 W/m2
15:29 17.2 °C 1.7 °C 1015.8 hPa SSE 14.5 km/h 14.5 km/h 35% 0 mm 796.00 W/m2
15:33 17.2 °C 2.8 °C 1015.8 hPa NW 11.3 km/h 14.5 km/h 37% 0 mm 796.00 W/m2
15:39 17.8 °C 1.7 °C 1015.8 hPa SE 14.5 km/h 14.5 km/h 34% 0 mm 788.00 W/m2
15:44 17.2 °C 1.7 °C 1015.8 hPa ESE 11.3 km/h 14.5 km/h 35% 0 mm 742.00 W/m2
15:49 17.2 °C 1.7 °C 1015.8 hPa SE 9.7 km/h 11.3 km/h 36% 0 mm 742.00 W/m2
15:54 17.2 °C 3.3 °C 1015.8 hPa NNW 9.7 km/h 9.7 km/h 40% 0 mm 715.00 W/m2
15:59 17.8 °C 3.3 °C 1015.8 hPa SSE 14.5 km/h 14.5 km/h 39% 0 mm 735.00 W/m2
16:04 17.8 °C 2.2 °C 1015.8 hPa SE 17.7 km/h 14.5 km/h 35% 0 mm 740.00 W/m2
16:09 17.8 °C 2.2 °C 1015.8 hPa East 9.7 km/h 16.1 km/h 36% 0 mm 708.00 W/m2
16:14 17.8 °C 2.8 °C 1015.8 hPa SSE 6.4 km/h 4.8 km/h 36% 0 mm 659.00 W/m2
16:19 17.8 °C 1.7 °C 1015.8 hPa SE 17.7 km/h 12.9 km/h 34% 0 mm 666.00 W/m2
16:24 17.8 °C 1.7 °C 1015.8 hPa ESE 19.3 km/h 16.1 km/h 34% 0 mm 606.00 W/m2
16:29 17.8 °C 1.7 °C 1015.8 hPa SE 20.9 km/h 20.9 km/h 33% 0 mm 436.00 W/m2
16:34 17.8 °C 1.7 °C 1015.8 hPa ESE 19.3 km/h 14.5 km/h 34% 0 mm 476.00 W/m2
16:39 17.8 °C 1.7 °C 1015.8 hPa ESE 20.9 km/h 20.9 km/h 34% 0 mm 617.00 W/m2
16:44 17.2 °C 1.7 °C 1015.8 hPa North 20.9 km/h 16.1 km/h 35% 0 mm 617.00 W/m2
16:48 17.2 °C 0.6 °C 1015.8 hPa NE 20.9 km/h 20.9 km/h 33% 0 mm 591.00 W/m2
16:54 17.2 °C 1.7 °C 1015.8 hPa ENE 27.4 km/h 27.4 km/h 35% 0 mm 526.00 W/m2
16:59 17.2 °C 1.1 °C 1015.8 hPa East 17.7 km/h 14.5 km/h 34% 0 mm 506.00 W/m2
17:04 17.2 °C 2.2 °C 1015.8 hPa ENE 25.7 km/h 16.1 km/h 36% 0 mm 485.00 W/m2
17:08 17.2 °C 1.7 °C 1015.8 hPa SSE 11.3 km/h 25.7 km/h 36% 0 mm 434.00 W/m2
El Dorado Weather
Compliments of Weather Underground - 2 mb